Location: Newark
(51.3656°N, 14.2631°E)
Time: 12:51:47
(UTC+00:00)

ISS - Visible Passes

Search period start: 17 January 2020 00:00
Search period end: 27 January 2020 00:00
Orbit: 415 x 421 km, 51.6° (Epoch: 17 January)

Date Brightness Start Highest point End Pass type
(mag) Time Alt. Az. Time Alt. Az. Time Alt. Az.
21 Jan -1.1 18:13:11 10° SSW 18:13:57 15° SSW 18:13:57 15° SSW visible
22 Jan -2.1 17:25:40 10° SSW 17:28:07 21° SSE 17:28:07 21° SSE visible
23 Jan -1.6 16:38:29 10° S 16:40:25 15° SE 16:42:14 11° ESE visible
23 Jan -1.9 18:13:22 10° SW 18:15:09 28° SW 18:15:09 28° SW visible
24 Jan -3.1 17:25:31 10° SW 17:28:40 39° SSE 17:29:11 36° SE visible
24 Jan -0.3 19:01:55 10° W 19:02:07 11° W 19:02:07 11° W visible
25 Jan -2.4 16:37:46 10° SSW 16:40:43 28° SSE 16:43:09 13° E visible
25 Jan -2.4 18:13:52 10° WSW 18:16:05 38° WSW 18:16:05 38° WSW visible
26 Jan -3.7 17:25:49 10° WSW 17:29:10 67° SSE 17:30:01 45° E visible
26 Jan -0.4 19:02:34 10° W 19:02:56 13° W 19:02:56 13° W visible
